Location: Freiburg+im+Breisgau
(48.0359°N, 7.8195°E)
Time: 10:57:08
(UTC+01:00)

ISS - Pass Details

Date: 07 January 2018
Orbit: 402 x 407 km, 51.6° (Epoch: 18 January)

Event Time Altitude Azimuth Distance (km) Brightness Sun altitude
Exits shadow 07:28:57 11° 295° (WNW) 1,420 -1.8 -8.0°
Maximum altitude 07:32:06 65° 18° (NNE) 453 -3.6 -7.5°
Drops below altitude 10° 07:35:22 10° 101° (E) 1,468 0.5 -7.0°
Sets 07:37:28 0° 104° (ESE) 2,327 2.1 -6.7°
